This demonstration page uses our WeatherBlox Daily Observations layout. Learn more.

Left ArrowRight Arrow

44.31136, -96.79839

Hourly Observations for August 5, 2022

Temp ( °F °C ) Dew Point ( °F °C ) Humidity (%) Winds ( mph kmh ) Pressure ( in mb ) Visibility ( mi km ) Precip ( " mm )
12:56 am 00:56 Clear 71 21.7 64 17.8 79 79 S 16 26 29.99 1016 10 16 0.00 0.00
1:56 am 01:56 Clear 70 21.1 64 17.8 82 82 S 18 30 29.99 1016 10 16 0.00 0.00
2:56 am 02:56 Clear 69 20.6 63 17.2 81 81 S 12 19 29.99 1016 10 16 0.00 0.00
3:56 am 03:56 Clear 68 20 63 17.2 84 84 S 15 24 29.98 1015 10 16 0.00 0.00
4:56 am 04:56 Clear 67 19.4 63 17.2 87 87 S 14 22 29.98 1015 10 16 0.00 0.00
5:56 am 05:56 Clear 66 18.9 62 16.7 87 87 S 14 22 29.97 1015 10 16 0.00 0.00
6:56 am 06:56 Sunny 67 19.4 62 16.7 84 84 S 14 22 29.97 1015 10 16 0.00 0.00
7:56 am 07:56 Sunny 71 21.7 60 15.6 68 68 S 15 24 29.97 1015 10 16 0.00 0.00
8:56 am 08:56 Sunny 76 24.4 61 16.1 60 60 S 14 22 29.95 1014 10 16 0.00 0.00
9:56 am 09:56 Sunny 80 26.7 62 16.7 54 54 S 17 28 29.94 1014 10 16 0.00 0.00
10:56 am 10:56 Sunny 83 28.3 64 17.8 53 53 S 24 39 29.93 1014 10 16 0.00 0.00
11:56 am 11:56 Sunny 86 30 66 18.9 51 51 S 20 31 29.92 1013 10 16 0.00 0.00
12:56 pm 12:56 Sunny 90 32.2 63 17.2 41 41 S 23 37 29.90 1013 10 16 0.00 0.00
1:56 pm 13:56 Sunny 93 33.9 64 17.8 38 38 S 24 39 29.88 1012 10 16 0.00 0.00
2:56 pm 14:56 Sunny 93 33.9 64 17.8 38 38 S 26 43 29.86 1011 10 16 0.00 0.00
3:56 pm 15:56 Sunny 96 35.6 65 18.3 36 36 S 24 39 29.84 1011 10 16 0.00 0.00
4:56 pm 16:56 Sunny 94 34.4 65 18.3 38 38 S 29 46 29.83 1010 10 16 0.00 0.00
5:56 pm 17:56 Sunny 91 32.8 66 18.9 44 44 S 25 41 29.83 1010 10 16 0.00 0.00
6:56 pm 18:56 Sunny 91 32.8 66 18.9 44 44 S 17 28 29.81 1010 10 16 0.00 0.00
7:56 pm 19:56 Sunny 85 29.4 68 20 57 57 S 13 20 29.81 1009 10 16 0.00 0.00
8:56 pm 20:56 Clear 83 28.3 69 20.6 63 63 SSE 12 19 29.84 1011 10 16 0.00 0.00
9:56 pm 21:56 Mostly Cloudy with Light Rain 80 26.7 70 21.1 71 71 SSE 13 20 29.85 1011 10 16 0.00 0.00
10:56 pm 22:56 Clear 80 26.7 70 21.1 71 71 SSE 17 28 29.83 1010 10 16 0.00 0.00
11:56 pm 23:56 Clear 79 26.1 70 21.1 74 74 SSE 13 20 29.86 1011 10 16 0.00 0.00

Powered by AerisWeather